sat.trackr.live / text

‹ back to catalog

STARLINK-36834

NORAD 67959 · 2026-037AD

PAYLOAD ACTIVE UNKNOWN

§ Identity

Operator
Country
US
Launch date
2026-02-24
Launch site
AFETR
Launch vehicle
Mass (kg)
RCS (m²)

Purposes: comms

External: N2YO · Heavens-Above · Gunter

§ Orbital elements

Epoch: 2026-09-18T04:31:33.710304Z

Period
94.26 min
Inclination
43.0004°
Eccentricity
0.0001327
Mean motion
15.27622594 rev/d
Perigee alt
482.0 km
Apogee alt
483.8 km
Semi-major
6,861.1 km
B*
1.3875e-3
RAAN
183.3550°
Arg perigee
264.7910°
Mean anomaly
95.2790°
Rev number
3,278

§ Raw data

STARLINK-368341 67959U 26037AD  26261.18858461  .00038166  00000+0  13875-2 0  99912 67959  43.0004 183.3550 0001327 264.7910  95.2790 15.27622594 32781

JSON: /api/v1/satellites/67959 · /tle

For live sub-satellite position, see the globe view (requires WebGL).

§ Visibility from observer

Set your observer location to see the next 7 days of passes ≥ 10°. The values pass through the URL so the page stays shareable.

No JS? Fill the form by hand. The geolocation button needs JavaScript.